Wind_Speed
25 25 27 26 25 24 23 23 23 25 26 24 23 20 19 19 20 21 22 24 25 25 24 23 23 23 23 22 21 19 20 20 21 22 23 23 22 21
22 23 24 24 22 22 23 23 23 25 27 26 24 21 19 19 18 18 19 21 23 24 24 24 24 24 23 22 21 20 19 19 19 20 20 20 20 20
20 20 20 21 21 20 21 22 22 24 27 28 27 24 23 22 20 19 18 19 20 21 22 23 24 24 24 23 22 22 21 20 20 20 20 20 20 20
19 19 19 19 19 19 19 20 22 22 25 27 29 29 27 25 23 22 21 21 21 21 21 22 23 23 24 24 23 23 23 23 23 23 23 23 23 23
19 18 18 18 17 18 18 19 20 22 24 25 27 30 30 29 28 26 25 25 24 22 22 23 24 24 24 24 24 25 25 25 25 25 25 26 26 25
20 20 19 18 18 18 18 19 20 20 21 24 26 29 30 30 30 30 30 30 28 26 26 26 26 26 26 26 26 27 27 27 27 26 26 26 26 26
22 22 21 20 19 19 19 19 20 21 21 22 26 27 29 31 32 32 32 32 31 31 31 30 29 28 29 29 29 29 30 30 29 29 28 28 28 28
22 23 23 23 22 22 21 21 22 22 22 23 24 27 29 32 34 35 34 34 34 34 34 33 31 31 32 31 31 31 32 31 31 31 31 31 31 31
23 23 23 24 24 24 23 23 24 24 23 23 24 25 27 30 34 37 37 36 37 38 37 36 35 34 34 32 32 32 33 33 32 33 33 34 34 34
24 24 23 23 23 24 24 24 24 24 24 24 24 24 25 27 30 34 38 39 39 40 40 38 38 38 36 34 34 34 35 35 35 35 35 36 36 36
22 23 24 23 23 23 23 23 23 23 23 23 23 23 24 26 29 31 34 36 38 40 41 40 41 42 40 38 37 37 37 37 38 37 37 37 37 37
20 21 22 22 22 21 22 22 22 22 22 22 22 22 22 23 25 27 30 33 36 38 41 42 42 43 42 41 40 40 39 39 38 38 37 37 37 37
22 21 21 21 20 20 20 20 20 21 21 22 22 22 22 22 23 23 24 26 29 31 35 37 39 40 41 41 42 42 41 40 40 39 39 38 38 38
23 23 23 22 20 19 18 18 19 19 20 21 22 22 22 22 23 23 24 24 25 26 28 31 33 35 37 37 38 40 41 41 41 42 42 42 42 42
25 25 25 24 23 21 19 19 18 19 20 20 21 22 22 23 23 24 25 26 27 28 29 31 32 33 35 36 37 39 41 42 43 43 44 44 44 44
24 25 25 25 24 23 21 19 19 18 19 19 20 21 22 22 23 24 26 27 28 29 30 31 32 33 34 36 37 38 40 41 42 43 44 45 45 45
18 20 21 22 21 21 20 19 18 18 18 18 18 19 20 21 22 23 24 25 26 27 28 29 30 31 33 34 35 37 38 39 40 41 41 42 43 45
7 10 14 16 16 16 16 16 16 15 15 15 16 16 17 19 20 22 23 25 26 28 29 30 31 32 34 35 36 37 39 40 41 42 43 43 44 46
4 6 9 10 9 9 9 9 9 10 10 11 13 14 16 18 19 21 23 25 27 29 31 32 33 34 36 37 38 40 40 41 42 43 44 44 44 45
10 10 9 8 7 5 4 3 3 4 6 8 10 12 14 17 20 22 24 26 28 30 33 34 35 36 37 38 39 41 42 43 43 43 44 45 45 45
16 15 13 11 9 8 6 4 3 3 5 7 9 12 15 17 20 22 25 27 29 31 33 34 35 36 37 38 39 40 41 43 43 44 44 45 45 46
19 18 17 15 13 12 10 8 7 7 8 10 12 14 17 19 22 24 26 27 28 29 31 32 33 34 35 36 37 37 39 40 41 42 43 44 45 45
21 21 20 19 17 16 13 12 11 11 12 14 16 17 19 20 22 23 24 24 25 25 26 27 28 29 31 32 34 35 36 37 38 40 41 42 42 43
Wind_Direction
269 264 261 261 256 252 249 247 242 235 230 234 235 234 234 234 236 236 234 233 233 235 238 241 242 245 247 248 248 247 245 243 240 240 242 245 249 252
269 264 260 258 257 250 245 243 238 232 229 232 234 234 234 233 234 235 236 236 235 236 237 239 241 244 246 247 246 244 243 242 241 241 243 247 250 253
268 264 261 256 256 253 245 240 237 234 231 232 235 236 237 237 237 237 238 239 238 238 237 238 239 242 244 244 243 243 243 244 244 245 247 250 252 253
267 264 261 257 256 254 246 241 240 237 235 235 236 236 237 240 240 240 241 242 242 242 241 241 242 242 243 242 242 243 245 247 249 250 251 252 252 253
265 263 260 257 255 252 250 247 245 244 241 239 240 237 238 241 242 243 245 246 246 246 246 246 245 245 244 244 244 245 246 249 251 254 254 254 253 253
263 261 258 257 254 252 251 251 248 248 247 245 244 243 243 241 241 244 246 247 248 248 248 249 249 249 248 247 247 247 248 250 251 253 253 253 254 254
262 260 258 257 254 253 252 252 252 253 254 254 249 246 246 243 242 244 246 248 249 249 248 250 251 253 252 250 249 249 249 250 251 252 253 254 255 256
264 261 258 257 256 256 255 255 255 256 257 257 255 252 251 247 244 246 248 249 250 250 250 251 251 252 252 253 253 252 252 252 253 254 255 256 257 258
264 260 258 257 256 257 257 257 257 258 259 259 259 257 255 252 248 248 249 251 252 253 252 253 253 252 252 253 255 255 254 255 255 257 258 259 259 260
263 260 258 256 255 255 256 257 258 258 258 259 258 257 256 253 251 249 251 253 254 253 253 253 255 255 254 255 257 257 256 256 257 258 260 261 262 262
263 260 257 256 256 255 255 256 257 257 258 258 258 257 256 254 254 253 253 255 254 253 254 255 255 257 257 258 258 258 258 259 259 260 261 262 263 263
264 260 257 256 255 256 256 257 257 257 258 258 257 258 258 259 258 257 255 254 254 253 253 254 255 256 257 258 259 259 259 260 260 261 262 262 263 263
262 258 255 255 254 254 256 257 258 258 257 257 257 258 259 259 259 258 257 259 258 255 252 250 251 252 255 256 258 259 259 260 260 261 262 262 262 263
260 256 253 253 253 254 256 257 257 257 257 257 256 258 258 259 258 259 261 263 265 264 261 256 254 253 254 255 257 258 259 260 261 261 262 262 262 263
259 254 251 251 251 252 257 259 259 257 257 257 256 256 257 258 259 259 261 263 264 264 265 266 265 262 261 261 262 262 263 263 264 264 263 263 263 263
259 252 248 246 246 248 252 256 259 259 258 258 258 259 259 261 262 264 266 267 268 268 268 268 268 268 267 266 266 265 265 265 265 265 265 265 265 265
256 246 240 239 240 241 245 251 256 258 257 257 259 262 263 265 267 269 271 272 273 273 273 271 271 270 270 270 270 269 269 268 267 268 267 267 267 266
249 231 224 223 226 232 239 247 253 255 255 258 261 264 267 270 273 275 276 277 277 276 276 275 274 273 273 272 272 272 272 271 271 270 269 269 268 268
106 151 175 187 198 211 226 238 245 251 259 267 272 275 278 280 281 282 282 281 280 279 279 278 277 276 275 275 275 274 273 272 272 272 271 271 271 270
96 107 123 139 149 160 180 207 242 268 284 292 294 293 292 291 290 289 288 287 286 284 283 281 280 279 277 276 275 275 274 273 273 272 271 271 270 270
87 92 94 100 105 104 100 89 56 12 343 329 318 311 306 302 300 298 295 293 291 289 288 286 284 282 280 278 277 276 275 274 273 272 271 270 269 269
83 84 86 86 86 84 78 69 49 21 358 342 331 323 316 312 309 306 303 300 298 295 292 290 288 286 284 282 281 279 278 276 275 273 272 271 270 269
80 80 79 79 77 73 65 52 35 18 2 350 342 336 330 326 322 319 316 312 309 305 301 298 295 293 291 289 287 285 283 281 279 277 275 274 272 271
Height
5799 5799 5800 5800 5801 5804 5806 5809 5811 5813 5816 5819 5821 5823 5825 5827 5829 5831 5834 5836 5838 5841 5843 5846 5848 5850 5852 5854 5855 5857 5858 5860 5861 5864 5866 5867 5869 5870
5793 5793 5794 5795 5796 5797 5800 5802 5805 5808 5811 5814 5816 5819 5821 5823 5825 5827 5829 5831 5833 5835 5838 5840 5843 5845 5847 5849 5851 5852 5854 5855 5857 5859 5861 5862 5863 5864
5788 5788 5789 5790 5791 5792 5794 5797 5799 5803 5806 5808 5811 5814 5816 5819 5821 5823 5825 5827 5828 5830 5832 5835 5837 5839 5842 5844 5846 5848 5849 5851 5853 5854 5856 5857 5858 5859
5784 5784 5785 5785 5786 5788 5789 5792 5794 5797 5800 5802 5805 5808 5811 5814 5816 5818 5820 5822 5824 5826 5828 5830 5832 5834 5836 5838 5840 5842 5844 5846 5848 5849 5850 5852 5853 5854
5779 5780 5780 5781 5782 5784 5785 5787 5789 5791 5794 5796 5799 5802 5805 5808 5810 5813 5815 5817 5819 5821 5823 5824 5826 5828 5830 5832 5834 5836 5838 5840 5842 5843 5845 5846 5847 5848
5775 5776 5776 5777 5778 5779 5781 5782 5784 5786 5788 5790 5793 5795 5798 5801 5804 5807 5809 5811 5813 5816 5817 5818 5820 5822 5824 5826 5828 5830 5831 5833 5835 5836 5838 5839 5840 5841
5770 5771 5771 5772 5773 5775 5776 5778 5779 5781 5782 5784 5786 5788 5791 5794 5797 5799 5802 5804 5807 5808 5810 5812 5814 5816 5817 5819 5821 5823 5824 5826 5827 5829 5830 5831 5833 5834
5764 5764 5765 5766 5768 5769 5770 5772 5774 5775 5777 5778 5780 5782 5783 5786 5788 5791 5794 5797 5799 5801 5803 5805 5807 5809 5810 5812 5814 5816 5817 5818 5820 5821 5822 5823 5824 5825
5757 5758 5759 5760 5761 5762 5764 5766 5768 5769 5771 5772 5774 5775 5776 5778 5780 5783 5785 5788 5790 5792 5794 5797 5798 5800 5802 5804 5806 5808 5809 5810 5811 5812 5813 5814 5815 5816
5749 5750 5752 5753 5754 5756 5757 5759 5760 5762 5764 5765 5766 5768 5769 5770 5772 5774 5776 5779 5781 5782 5784 5787 5789 5791 5793 5796 5798 5799 5800 5802 5803 5803 5804 5805 5806 5807
5741 5743 5744 5746 5747 5749 5750 5752 5753 5755 5756 5758 5759 5760 5761 5763 5764 5766 5768 5770 5772 5773 5775 5778 5779 5780 5783 5786 5788 5789 5790 5791 5792 5794 5795 5796 5796 5796
5735 5736 5737 5739 5741 5742 5744 5745 5747 5748 5750 5751 5752 5754 5755 5756 5757 5758 5759 5761 5762 5764 5765 5767 5769 5770 5773 5775 5777 5778 5779 5780 5781 5783 5784 5785 5785 5785
5728 5729 5731 5732 5734 5736 5737 5739 5741 5742 5743 5745 5746 5747 5748 5749 5750 5751 5752 5753 5753 5754 5756 5757 5759 5760 5762 5764 5765 5766 5768 5769 5770 5771 5772 5773 5774 5774
5721 5722 5724 5726 5728 5730 5732 5733 5735 5736 5737 5739 5740 5741 5742 5742 5743 5744 5745 5745 5746 5746 5747 5748 5749 5750 5751 5752 5754 5754 5755 5757 5758 5759 5759 5760 5761 5762
5712 5714 5716 5719 5721 5724 5726 5728 5729 5730 5732 5733 5734 5735 5735 5736 5737 5737 5738 5738 5738 5739 5739 5739 5740 5740 5741 5742 5742 5743 5743 5744 5745 5746 5746 5747 5748 5749
5702 5705 5708 5711 5714 5717 5720 5722 5724 5725 5726 5727 5728 5729 5730 5730 5731 5731 5731 5731 5731 5731 5731 5731 5731 5731 5731 5731 5731 5731 5731 5732 5732 5732 5733 5733 5734 5734
5693 5696 5700 5704 5708 5711 5714 5717 5719 5720 5721 5722 5723 5724 5724 5724 5725 5724 5724 5724 5723 5723 5723 5722 5722 5722 5722 5721 5721 5720 5719 5719 5719 5719 5720 5720 5720 5720
5688 5690 5694 5698 5703 5707 5710 5713 5714 5716 5717 5718 5718 5719 5719 5719 5719 5718 5718 5717 5716 5715 5715 5714 5713 5713 5712 5711 5710 5709 5708 5707 5707 5707 5707 5707 5707 5706
5688 5690 5693 5697 5701 5705 5708 5710 5712 5713 5714 5715 5715 5715 5715 5714 5714 5713 5711 5710 5709 5707 5706 5704 5703 5702 5701 5700 5698 5697 5696 5695 5694 5694 5693 5693 5693 5692
5692 5694 5696 5699 5702 5705 5707 5709 5711 5712 5712 5712 5712 5712 5711 5710 5708 5706 5704 5702 5700 5698 5696 5694 5692 5691 5689 5688 5686 5683 5682 5681 5680 5680 5679 5678 5678 5677
5698 5699 5701 5703 5705 5707 5709 5710 5711 5712 5711 5711 5710 5708 5707 5705 5703 5700 5698 5695 5692 5689 5686 5683 5680 5678 5676 5674 5673 5670 5668 5667 5665 5665 5664 5663 5663 5662
5705 5706 5706 5707 5709 5710 5711 5712 5712 5712 5711 5709 5708 5706 5703 5700 5697 5694 5690 5687 5683 5680 5676 5673 5670 5667 5664 5662 5659 5657 5655 5653 5651 5649 5649 5648 5647 5647
5712 5713 5713 5713 5714 5714 5714 5714 5713 5712 5710 5708 5705 5702 5699 5696 5692 5688 5683 5679 5675 5671 5668 5664 5660 5657 5654 5651 5648 5645 5642 5640 5638 5636 5634 5632 5632 5631